This demonstration page uses our WeatherBlox Daily Observations layout. Learn more.

38.89511, -77.03637

Hourly Observations for February 20, 2020

Temp ( °F °C ) Dew Point ( °F °C ) Humidity (%) Winds ( mph kmh ) Pressure ( in mb ) Visibility ( mi km ) Precip ( " mm )
12:52 am 00:52 Mostly Clear 38 3.3 19 -7.2 46 46 NNW 8 13 30.43 1031 10 16.0934 0 0
1:52 am 01:52 Mostly Clear 37 2.8 19 -7.2 48 48 NNW 7 11 30.44 1031 10 16.0934 0 0
2:52 am 02:52 Mostly Cloudy 38 3.3 22 -5.6 52 52 Calm 30.43 1031 10 16.0934 0 0
3:52 am 03:52 Mostly Cloudy 34 1.1 24 -4.4 67 67 NNW 7 11 30.44 1031 10 16.0934 0 0
4:52 am 04:52 Mostly Cloudy 36 2.2 20 -6.7 52 52 NNW 7 11 30.45 1031 10 16.0934 0 0
5:52 am 05:52 Cloudy 33 0.6 21 -6.1 61 61 N 9 15 30.45 1031 10 16.0934 0 0
6:52 am 06:52 Cloudy 38 3.3 18 -7.8 44 44 NNE 13 20 30.46 1031 10 16.0934 0 0
7:52 am 07:52 Cloudy 38 3.3 15 -9.4 39 39 NNE 14 22 30.49 1033 10 16.0934 0 0
8:52 am 08:52 Cloudy 38 3.3 20 -6.7 48 48 NE 13 20 30.49 1033 10 16.0934 0 0
9:52 am 09:52 Cloudy 38 3.3 18 -7.8 44 44 NE 9 15 30.49 1033 10 16.0934 0 0
10:52 am 10:52 Cloudy 39 3.9 15 -9.4 38 38 NNE 6 9 30.49 1033 10 16.0934 0 0
11:52 am 11:52 Cloudy 40 4.4 14 -10 35 35 ENE 3 6 30.48 1032 10 16.0934 0 0
12:52 pm 12:52 Cloudy 40 4.4 14 -10 35 35 VRB 3 6 30.45 1031 10 16.0934 0 0
1:52 pm 13:52 Cloudy 41 5 14 -10 33 33 NW 5 7 30.43 1031 10 16.0934 0 0
2:52 pm 14:52 Cloudy 40 4.4 13 -10.6 33 33 VRB 3 6 30.41 1030 10 16.0934 0 0
3:52 pm 15:52 Cloudy 40 4.4 14 -10 35 35 N 3 6 30.39 1029 10 16.0934 0 0
4:52 pm 16:52 Cloudy 40 4.4 13 -10.6 33 33 NNW 6 9 30.39 1029 10 16.0934 0 0
5:52 pm 17:52 Cloudy 39 3.9 14 -10 36 36 NNW 6 9 30.4 1030 10 16.0934 0 0
6:52 pm 18:52 Mostly Cloudy 38 3.3 15 -9.4 39 39 NNE 6 9 30.41 1030 10 16.0934 0 0
7:52 pm 19:52 Mostly Cloudy 38 3.3 16 -8.9 41 41 NNE 9 15 30.41 1030 10 16.0934 0 0
8:52 pm 20:52 Mostly Cloudy 38 3.3 16 -8.9 41 41 NNE 15 24 30.42 1030 10 16.0934 0 0
9:52 pm 21:52 Cloudy 36 2.2 17 -8.3 46 46 NNE 17 28 30.44 1031 10 16.0934 0 0
10:52 pm 22:52 Cloudy 35 1.7 17 -8.3 48 48 N 20 31 30.44 1031 10 16.0934 0 0
11:52 pm 23:52 Cloudy 34 1.1 19 -7.2 54 54 N 18 30 30.45 1031 10 16.0934 0 0

Powered by AerisWeather